Regional Weather Roundup
Issued by NWS Charleston, WV

Home | Current Version | Previous Version | Text Only | Print | Product List | Glossary Off
Versions: 1 2 3 4 5 6 7 8 9 10 11 12 13 14 15 16 17 18 19 20 21 22 23 24 25 26 27 28 29 30 31 32 33 34 35 36 37 38 39 40 41 42 43 44 45 46 47 48 49 50

000
ASUS41 KRLX 170210
RWRRLX
West Virginia Regional Weather Roundup
National Weather Service Charleston WV
1000 PM EDT TUE SEP 16 2014

Note: "fair" indicates few or no clouds below 12,000 feet with no
significant weather and/or obstructions to visibility.

WVZ003-170300-
Northern Panhandle of West Virginia

CITY           SKY/WX    TMP DP  RH WIND       PRES   REMARKS
WHEELING       CLEAR     56  51  84 CALM      30.08S
$$

WVZ009-170300-
Northwest West Virginia

CITY           SKY/WX    TMP DP  RH WIND       PRES   REMARKS
PARKERSBURG    CLEAR     55  52  89 N5        30.10S
$$

WVZ006-170300-
Western West Virginia

CITY           SKY/WX    TMP DP  RH WIND       PRES   REMARKS
HUNTINGTON     CLOUDY    60  54  80 N5        30.08S
$$

WVZ015-170300-
West Central West Virginia

CITY           SKY/WX    TMP DP  RH WIND       PRES   REMARKS
CHARLESTON     MOCLDY    59  59 100 S3        30.08R
$$

WVZ031-170300-
North Central West Virginia

CITY           SKY/WX    TMP DP  RH WIND       PRES   REMARKS
CLARKSBURG     CLEAR     53  50  89 CALM      30.08R
MORGANTOWN     CLEAR     55  50  83 CALM      30.09S
$$

WVZ035-042-045-170300-
South Central West Virginia

CITY           SKY/WX    TMP DP  RH WIND       PRES   REMARKS
BECKLEY        CLOUDY    57  53  86 CALM      30.11R
BLUEFIELD      CLOUDY    60  55  83 NE5       30.11S
LEWISBURG      PTCLDY    56  53  89 CALM      30.10S
$$

WVZ047-170300-
Northern Mountains of West Virginia

CITY           SKY/WX    TMP DP  RH WIND       PRES   REMARKS
ELKINS         MOCLDY    52  50  93 CALM      30.11R
$$

WVZ052-170300-
Eastern Panhandle of West Virginia

CITY           SKY/WX    TMP DP  RH WIND       PRES   REMARKS
MARTINSBURG    CLEAR     62  48  60 N5        30.05R
PETERSBURG     CLEAR     52  50  92 W5        30.09S
$$


USA.gov is the U.S. government's official web portal to all federal, state and local government web resources and services.